VK2TRB Weather Reports


time (UTC)temp
C
wind
direction
speed
KPH
gust
KPH
rain 1hr
cm
rain 24hr
cm
rain mn
cm
humidity
%
barometer
mb
20260505101956 10 290 0.0 8.0 0.00 0.00 0.00 88 1019.0
20260505100457 10 290 0.0 8.0 0.00 0.00 0.00 87 1018.9
20260505094957 10 290 0.0 8.0 0.00 0.00 0.00 86 1018.9
20260505093456 11 290 0.0 8.0 0.00 0.00 0.00 85 1018.9
20260505091956 11 291 0.0 8.0 0.00 0.00 0.00 85 1018.8
20260505090458 11 290 0.0 8.0 0.00 0.00 0.00 85 1018.8
20260505084957 12 291 0.0 8.0 0.00 0.00 0.00 84 1018.6
20260505083457 12 285 1.6 8.0 0.00 0.00 0.00 83 1018.4
20260505081956 12 263 1.6 8.0 0.00 0.00 0.00 81 1018.2
20260505080456 13 259 1.6 8.0 0.00 0.00 0.00 80 1018.1
20260505074957 13 265 1.6 8.0 0.00 0.00 0.00 79 1017.9
20260505073457 13 261 4.8 8.0 0.00 0.00 0.00 76 1017.8
20260505071957 14 238 3.2 8.0 0.00 0.00 0.00 74 1017.6
20260505070457 15 262 3.2 8.0 0.00 0.00 0.00 72 1017.5
20260505064957 15 277 4.8 8.0 0.00 0.00 0.00 70 1017.4
20260505063457 15 232 6.4 8.0 0.00 0.00 0.00 68 1017.3
20260505061957 15 297 4.8 8.0 0.00 0.00 0.00 68 1017.2
20260505060457 16 272 8.0 8.0 0.00 0.00 0.00 67 1017.2
20260505054957 16 253 8.0 8.0 0.00 0.00 0.00 66 1017.2
20260505053457 16 269 1.6 8.0 0.00 0.00 0.00 67 1017.1
20260505051956 16 281 8.0 8.0 0.00 0.00 0.00 66 1016.9
20260505050458 16 294 6.4 8.0 0.00 0.00 0.00 65 1016.8
20260505040458 16 281 6.4 8.0 0.00 0.00 0.00 66 1016.6
20260505034958 16 244 4.8 8.0 0.00 0.00 0.00 68 1016.5
20260505033457 15 351 4.8 8.0 0.00 0.00 0.00 70 1016.6
20260505031957 16 311 6.4 8.0 0.00 0.00 0.00 68 1016.7
20260505030458 15 302 3.2 8.0 0.00 0.00 0.00 73 1016.8
20260505024958 15 238 3.2 8.0 0.00 0.00 0.00 73 1016.8
20260505023458 15 316 6.4 8.0 0.00 0.00 0.00 72 1017.0
20260505021957 15 209 3.2 8.0 0.00 0.00 0.00 73 1017.0
20260505020458 15 338 1.6 8.0 0.00 0.00 0.00 73 1017.2
20260505014958 14 327 1.6 8.0 0.00 0.00 0.00 75 1017.2
20260505013459 14 253 4.8 8.0 0.00 0.00 0.00 76 1017.2
20260505011958 14 261 6.4 8.0 0.00 0.00 0.00 74 1017.4
20260505010458 14 299 4.8 8.0 0.00 0.00 0.00 76 1017.4
20260505004958 13 301 4.8 8.0 0.00 0.00 0.00 77 1017.4
20260505003457 13 238 1.6 8.0 0.00 0.00 0.00 77 1017.3
20260505001958 13 269 4.8 8.0 0.00 0.00 0.00 77 1017.2
20260505000458 13 240 3.2 8.0 0.00 0.00 0.00 79 1017.1
20260504234958 13 307 4.8 8.0 0.00 0.00 0.00 81 1017.0
20260504233458 12 250 1.6 8.0 0.00 0.00 0.00 85 1017.0
20260504231959 12 239 6.4 8.0 0.00 0.00 0.00 85 1017.0
20260504230457 12 271 3.2 8.0 0.00 0.00 0.00 87 1017.0
20260504224959 12 205 0.0 8.0 0.00 0.00 0.00 88 1017.0
20260504223458 11 246 1.6 8.0 0.00 0.00 0.00 89 1016.9
20260504221958 11 219 3.2 8.0 0.00 0.00 0.00 91 1016.8
20260504220458 11 245 0.0 8.0 0.00 0.00 0.00 92 1016.5
20260504214958 11 260 1.6 8.0 0.00 0.00 0.00 92 1016.2
20260504213459 11 273 1.6 8.0 0.00 0.00 0.00 92 1015.9
20260504211958 11 275 0.0 8.0 0.00 0.00 0.00 92 1015.7
20260504210458 11 274 1.6 8.0 0.00 0.00 0.00 92 1015.5
20260504205000 10 261 1.6 8.0 0.00 0.00 0.00 92 1015.3
20260504203459 11 250 3.2 8.0 0.00 0.00 0.00 91 1015.2
20260504201959 11 243 3.2 8.0 0.00 0.00 0.00 92 1015.1
20260504200458 11 240 4.8 8.0 0.00 0.00 0.00 93 1014.9
20260504194958 10 258 0.0 8.0 0.00 0.05 0.00 92 1014.8
20260504193500 10 274 0.0 8.0 0.00 0.05 0.00 91 1014.8
20260504191959 10 274 0.0 8.0 0.00 0.05 0.00 91 1014.7
20260504190459 10 274 0.0 8.0 0.00 0.05 0.00 90 1014.6
20260504184959 10 283 0.0 8.0 0.00 0.20 0.00 90 1014.4
20260504183459 10 284 0.0 8.0 0.00 0.20 0.00 89 1014.2
20260504182000 10 284 0.0 8.0 0.00 0.20 0.00 88 1014.2
20260504180500 10 284 0.0 8.0 0.00 0.20 0.00 88 1014.0
20260504174959 10 285 1.6 8.0 0.00 0.25 0.00 88 1013.8
20260504173458 10 286 1.6 8.0 0.00 0.25 0.00 87 1013.7
20260504172000 10 287 0.0 8.0 0.00 0.25 0.00 87 1013.7
20260504170500 11 288 0.0 8.0 0.00 0.25 0.00 86 1013.7
20260504150459 12 288 1.6 8.0 0.00 0.48 0.00 79 1013.4
20260504140459 11 290 1.6 19.3 0.08 0.08 0.08 90 1013.4
20260504130500 9 250 0.0 19.3 0.08 0.20 0.20 91 1013.5
20260504110500 10 262 0.0 19.3 0.08 0.46 0.20 89 1013.4